Regional Weather Roundup
Issued by NWS

Home | Current Version | Previous Version | Graphics & Text | Print | Product List | Glossary On
Versions: 1 2 3 4 5 6 7 8 9 10 11 12 13 14 15 16 17 18 19 20 21 22 23 24 25 26 27 28 29 30 31 32 33 34 35 36 37 38 39 40 41 42 43 44 45 46 47 48 49 50
000
ASUS45 KCYS 261810
RWRWY

WYOMING REGIONAL WEATHER ROUNDUP
NATIONAL WEATHER SERVICE CHEYENNE WY
1100 AM MST SUN FEB 26 2017

NOTE:  "FAIR" INDICATES FEW OR NO CLOUDS BELOW 12,000 FEET
WITH NO SIGNIFICANT WEATHER AND/OR OBSTRUCTIONS TO VISIBILITY.

WYZ001-261900-
YELLOWSTONE NATIONAL PARK

CITY           SKY/WX    TMP DP  RH WIND       PRES   REMARKS
LK YELLOWSTONE   N/A     13   5  70 VRB6      29.70S WCI   4
6HR MIN TEMP:   5; 6HR MAX TEMP:  13; 6HR PCP:  0.01;

W YELLOWSTONE  NOT AVBL

$$
WYZ002>013-054>058-071-098>099-261900-
NORTHERN WYOMING

CITY           SKY/WX    TMP DP  RH WIND       PRES   REMARKS
JACKSON        PTSUNNY   18   9  68 S14       29.77F WCI   4
CODY           FAIR      27   2  34 W10       29.72F WCI  17
GREYBULL       FAIR      28   9  44 S9        29.78F WCI  19
6HR MIN TEMP:  18; 6HR MAX TEMP:  28;

WORLAND        FAIR      25  10  53 W3        29.78F
6HR MIN TEMP:  11; 6HR MAX TEMP:  25;

SHERIDAN       FAIR      32  11  41 S7G17     29.74F WCI  26
6HR MIN TEMP:  13; 6HR MAX TEMP:  32;

BUFFALO        FAIR      28   6  39 SE6       29.72F WCI  22
6HR MIN TEMP:  12; 6HR MAX TEMP:  28;

GILLETTE       FAIR      29  11  47 SW9       29.74F WCI  20
6HR MIN TEMP:  17; 6HR MAX TEMP:  29;

HULETT         FAIR      32  14  47 W12G17    29.75S WCI  23
NEWCASTLE      FAIR      21   9  58 SE8       29.82S WCI  12

$$
WYZ014>020-022>026-101>103-261900-
CENTRAL WYOMING

CITY           SKY/WX    TMP DP  RH WIND       PRES   REMARKS
BIG PINEY      FAIR       1  -4  79 CALM      29.81S
6HR MIN TEMP: -18; 6HR MAX TEMP:   1;

PINEDALE       MOCLDY     3  -4  72 SE3       29.80F
DUBOIS         FAIR      18   1  49 NW17G23   29.67F WCI   2
LANDER         FAIR      15  -2  46 CALM      29.74F
6HR MIN TEMP:   0; 6HR MAX TEMP:  15;

RIVERTON       FAIR      19   3  49 SW13      29.75S WCI   6
6HR MIN TEMP:   2; 6HR MAX TEMP:  19;

CASPER         FAIR      19   5  54 SW21      29.79S WCI   3
6HR MIN TEMP:   9; 6HR MAX TEMP:  19;

DOUGLAS        FAIR      21   7  54 SW3       29.80S
6HR MIN TEMP:  -6; 6HR MAX TEMP:  21;


$$
WYZ021-027>030-104>119-261900-
SOUTHERN WYOMING

CITY           SKY/WX    TMP DP  RH WIND       PRES   REMARKS
EVANSTON       FAIR      13   7  77 SW13      29.81F WCI  -2
6HR MIN TEMP:   1; 6HR MAX TEMP:  13; 6HR PCP: TRACE;

FORT BRIDGER   FAIR      20   7  58 W12       29.85S WCI   7
ROCK SPRINGS   FAIR      16   4  59 SW12      29.83F WCI   3
6HR MIN TEMP:   3; 6HR MAX TEMP:  16; 6HR PCP: TRACE;

DIXON            N/A     24   7  49 SW14G20   29.91S WCI  12
RAWLINS        FAIR      17   5  59 SW23G31   29.81F WCI  -1
6HR MIN TEMP:   7; 6HR MAX TEMP:  17;

SARATOGA       FAIR      21   5  49 W10       29.84S WCI  10
LARAMIE        FAIR      20   3  48 SW21G30   29.73S WCI   4
6HR MIN TEMP:   6; 6HR MAX TEMP:  20;

CHEYENNE       FAIR      23   5  46 SW12      29.78S WCI  12
6HR MIN TEMP:  14; 6HR MAX TEMP:  24;

TORRINGTON     FAIR      21   9  59 S5        29.83F WCI  15
6HR MIN TEMP:   8; 6HR MAX TEMP:  21;

PINE BLUFFS    FAIR      30   9  40 W14G21    29.83S WCI  20

$$



USA.gov is the U.S. government's official web portal to all federal, state and local government web resources and services.